STARLINK-3818, 52340

Orbit data source: Space-Track

STARLINK-3818, 52340 is a payload satellite owned by SpaceX/Seattle (US) in LEO that was launched on Fri, 29 Apr 2022 UTC via an FALCON 9 launch vehicle from the Air Force Eastern Test Range (AFETR). Payload-class satellites include a variety of spacecraft equipped with specific instruments for various scientific and technological missions. These include communications satellites like Starlink; space stations such as the ISS; scientific satellites like the Hubble; Earth observation satellites from companies like Planet Labs, Umbra, and HawkEye 360; GPS; miniature CubeSats for education and research; and military/defense satellites.

Loading next visibility...
Identifier
52340, 2022-045K
Orbit
LEO
Country
Flag of USUS
Related business
Manufacturer
SpaceX/Seattle
Mission
Operational Commercial Communications
Bus & Motor
STARLINK, Unknown motor
Mass
297 kg wet, ~275 kg dry
Launch date (UTC)
2022-04-29 (4 years ago)
Launch vehicle
FALCON 9
Launch site
Air Force Eastern Test Range (AFETR)
Object type
Payload
Rocket body
Debris
Shape & HBR
Box + 1 Pan, 10.1 m
Radar Cross Section
11.087 m², Large (>1 m²)

Expand to show TLE details & history
Last TLE update: 3 days ago

TLE from 3 days ago
0 STARLINK-3818
1 52340U 22045K   26170.53303589 -.00004204  00000-0 -24609-3 0  9995
2 52340  53.1593 101.8177 0001310  91.1977 268.9165 15.08851276231147
Epoch: 2026-06-19T12:47Z
TLE epoch observation values (Epoch: 2026-06-19T12:47:34.300Z)
Latitude
-0°
Longitude
2.16413°
Altitude
540.617 km
Speed
7.593 km/s
True Right ascension
06h 47m 16s
True Declination
0° 00' 00"
Sunlit
Object was in daylight at epoch
Visualization orbit readout
Latitude
Unknown
Longitude
Unknown
Altitude
Unknown
Speed
Unknown
Apparent Right ascension
Unknown
Apparent Declination
Unknown
Sunlit
N/A
Visualization observer readout
Local Sidereal Time
21:40:21
Azimuth
Unknown
Elevation
Unknown
Doppler factor
Unknown
Orbital elements
Apogee altitude
540.869 km
Perigee altitude
539.057 km
Semi-major axis
6,918.1 km
Eccentricity
0.00013
Inclination
53.1593°
RAAN
101.8177°
Arg. of periapsis
91.1977°
True anomaly
268.90149°
Mean anomaly
268.9165°
Eccentric anomaly
268.909°
Mean motion
3.77192 °/min
Orbital period
95.44 mins
BSTAR
-0.00024609
Loading maneuver chart data...
Computing Atmospheric mass density...
Loading historical data...
Loading historical data...
Loading historical data...
Loading historical data...
Loading historical data...
Loading historical data...
Loading historical data...

Documentation

Showing up to 5 results
|